"Pseudo-MPEC" for P21pjzm

Created 2021 Nov 27 14:07:22 UT using Find_Orb

Click here for an explanation of pseudo-MPECs

 
 Astrometry: 
     P21pjzm  C2021 11 24y5LKno#qQFktnjuQF-r,(v?oIyd?EcTrhHA`88]fuNbNIxZRNRqDF52
     P21pjzm  C2021 11 24!JbtJ%OBmQ=-W/E8l23tNmHQk])tiTrkY4?)9n%`Bm1QmIwY6La)F52
     P21pjzm  C2021 11 24N8Oev#U*Occ?FVhKhGcSRVW*imVPQ^CJ?]%#2Yguxg+@mGb:0GAsF52
     P21pjzm KC2021 11 24Qd@aoqE8Qo14N4-UO`CZj'i*l+QgX\+xCJil!8WjgljN!@hxoh\^L01
     P21pjzm KC2021 11 24M(CXIU;TS8/#'!Y@YIa%miZ3XYh'!$e(`ba/=V=JnL(v(ap;d1tWL01
     P21pjzm KC2021 11 24TTEfggmCEAstrometry2K+t2:kh17^Dg@_7[IUZVc%CQF6tkIEvwL01
     P21pjzm KC2021 11 242jiTV_k:)24hIokK$K(g+%QolCrlspX92txXh'jInq:?u?!bJZ[PL01
     P21pjzm KC2021 11 24'yHsrredacted;+610/PxjtmhKab'==Qxx-NY,v-%o8o0Zj`2Z5gL01
     P21pjzm KC2021 11 24NW85?9p70H5b/cA9NubgjCQ$387m'$u^peXc[os]*[mGW/:+^#L(K51
     P21pjzm KC2021 11 24F$-YpDwV[rA96Vb/nlEamJ.a.1h61lwDu$9wZNJUB`2*IQHAxJE,K51
     P21pjzm KC2021 11 24fSqTC(up+/n?]ruY2a5AI^GbaTNn%\7b\fhx]Ma+my#BXi]P$$ybK51
     P21pjzm KC2021 11 26tG%[U-OZj@BL-e%j8fclickuhere+eR'xAdNEB(b)Aw^NrG;E.Z$858
     P21pjzm KC2021 11 26RrforDMXdY_b$explanationjyLa=U(n91Of)P[(^;,63+=Eov_1858
     P21pjzm 1C2021 11 26.91170 02 05 09.35 +19 32 45.2    ~BRAb 21.4 VVNEOCP033
     P21pjzm 1C2021 11 26.91418 02 05 08.64 +19 32 52.1    ~BRAb 21.8 VVNEOCP033
     P21pjzm 1C2021 11 26.91667 02 05 07.83 +19 32 59.9    ~BRAb 21.8 VVNEOCP033
     P21pjzm KC2021 11 27.38478 02 02 49.91 +19 57 10.9    ~BRBM 21.8 RoNEOCP691
     P21pjzm KC2021 11 27.39636 02 02 46.42 +19 57 44.7    ~BRBM       oNEOCP691
     P21pjzm KC2021 11 27.40792 02 02 42.98 +19 58 20.1    ~BRBM 21.1 RoNEOCP691

Station data:
(033) Karl Schwarzschild Observatory, Tautenburg  (N50.980140 E11.711240)
   Germany. 1.3-m Schmidt.
(691) Steward Observatory, Kitt Peak - Spacewatch  (N31.962174 W111.600327)
   US/Arizona.  Observer J. V. Scotti. 0.9-m f/3 reflector + CCD.
(858) Tebbutt Observatory, Edgewood  (N35.093872 W106.220000)  US/New Mexico.
(F52) Pan-STARRS 2, Haleakala  (N20.707384 W156.255910)  US/Hawaii. 1.8-m
   Ritchey-Chrétien + CCD.
(K51) Osservatorio del Celado, Castello Tesino  (N46.029412 E11.657900)
   Italy.
(L01) Višnjan Observatory, Tičan  (N45.290900 E13.749300)  Croatia.
   Observers K. Korlević, E. Pettarin. Measurer E. Pettarin. 1.0-m f/2.9
   reflector + CCD.

Orbital elements:  P21pjzm
   Perihelion 2022 Apr 3.519645 +/- 0.174837 TT = 12:28:17 (JD 2459673.019645)
Epoch 2021 Nov 27.0 TT = JDT 2459545.5   Earth MOID: 0.0415   AutoNEOCP
M 248.18005934 +/- 0.3228260        (J2000 ecliptic)
n   0.87688403 +/- 0.00233498       Peri.  130.13000 +/- 0.1944565
a   1.08103878 +/- 0.00191902       Node    56.26554 +/- 0.0341944
e   0.1453076 +/- 0.00135294        Incl.   15.77039 +/- 0.2381615
P   1.12/410.54d           H 23.7   G  0.15   U  8.7  
q 0.92395556 +/- 0.000219282    Q 1.23812199 +/- 0.00366478
From 19 observations 2021 Nov. 24-27; mean residual 0".40
Residuals in arcseconds: 
211124 F52  .50-  .45+    211124 L01  .02+  .32+    211126 033  .82+  .52-    
211124 F52  .02-  .37-    211124 K51  .01-  .43-    211126 033  .07+  .39-    
211124 F52  .05-  .35-    211124 K51  .38-  .08-    211127 691  .44+  .41+    
211124 L01  1.0+  .26+    211124 K51  .16+  .25-    211127 691  .26-  .44-    
211124 L01  .03+  .05+    211126 858  .45-  .07-    211127 691  .55-  .41+    
211124 L01  .74+  .35+    211126 858  .55-  .32+    
211124 L01  .22-  .38+    211126 033  .19+  .22+    

Ephemerides (geocentric):
Date (UTC) HH   RA              Dec         delta   r     elong  mag " sig PA
---- -- -- --  -------------   -----------  ------ ------ -----  --- ---- ---
2021 11 27 14  02 01 54.914   +20 07 35.01  .19232 1.1563 149.3 21.6 .599  63
2021 11 27 15  02 01 42.891   +20 09 42.30  .19237 1.1562 149.2 21.6 .622  65
2021 11 27 16  02 01 30.877   +20 11 49.49  .19242 1.1561 149.1 21.7 .646  66
2021 11 27 17  02 01 18.871   +20 13 56.57  .19247 1.1560 149.1 21.7 .671  67
2021 11 27 18  02 01 06.873   +20 16 03.55  .19252 1.1559 149.0 21.7 .696  68
2021 11 27 19  02 00 54.885   +20 18 10.42  .19258 1.1559 148.9 21.7 .722  68
2021 11 27 20  02 00 42.905   +20 20 17.19  .19263 1.1558 148.8 21.7 .749  69
2021 11 27 21  02 00 30.934   +20 22 23.84  .19268 1.1557 148.7 21.7 .776  70
2021 11 27 22  02 00 18.971   +20 24 30.39  .19273 1.1556 148.7 21.7 .803  71
2021 11 27 23  02 00 07.017   +20 26 36.84  .19279 1.1555 148.6 21.7 .831  72
2021 11 28 00  01 59 55.073   +20 28 43.17  .19284 1.1555 148.5 21.7 .860  72
2021 11 28 01  01 59 43.137   +20 30 49.40  .19290 1.1554 148.4 21.7 .889  73
2021 11 28 02  01 59 31.210   +20 32 55.52  .19295 1.1553 148.3 21.7 .919  74
2021 11 28 03  01 59 19.292   +20 35 01.52  .19300 1.1552 148.2 21.7 .949  74
2021 11 28 04  01 59 07.383   +20 37 07.42  .19306 1.1551 148.2 21.7 .980  75
2021 11 28 05  01 58 55.483   +20 39 13.21  .19311 1.1550 148.1 21.7 1.01  75
2021 11 28 06  01 58 43.592   +20 41 18.89  .19317 1.1550 148.0 21.7 1.04  76
2021 11 28 07  01 58 31.711   +20 43 24.46  .19323 1.1549 147.9 21.7 1.08  76
2021 11 28 08  01 58 19.839   +20 45 29.92  .19328 1.1548 147.8 21.7 1.11  77
2021 11 28 09  01 58 07.976   +20 47 35.27  .19334 1.1547 147.7 21.7 1.14  77
2021 11 28 10  01 57 56.122   +20 49 40.51  .19339 1.1546 147.7 21.7 1.18  78
2021 11 28 11  01 57 44.278   +20 51 45.63  .19345 1.1545 147.6 21.7 1.21  78
2021 11 28 12  01 57 32.443   +20 53 50.65  .19351 1.1545 147.5 21.7 1.25  78
2021 11 28 13  01 57 20.617   +20 55 55.55  .19357 1.1544 147.4 21.7 1.28  79
2021 11 28 14  01 57 08.802   +20 58 00.34  .19362 1.1543 147.3 21.7 1.32  79
2021 11 28 15  01 56 56.995   +21 00 05.02  .19368 1.1542 147.3 21.7 1.35  80
2021 11 28 16  01 56 45.199   +21 02 09.58  .19374 1.1541 147.2 21.7 1.39  80
2021 11 28 17  01 56 33.411   +21 04 14.03  .19380 1.1540 147.1 21.7 1.43  80
2021 11 28 18  01 56 21.634   +21 06 18.36  .19386 1.1540 147.0 21.7 1.47  80
2021 11 28 19  01 56 09.866   +21 08 22.59  .19392 1.1539 146.9 21.7 1.50  81
2021 11 28 20  01 55 58.109   +21 10 26.69  .19398 1.1538 146.8 21.7 1.54  81
2021 11 28 21  01 55 46.360   +21 12 30.69  .19404 1.1537 146.8 21.7 1.58  81
2021 11 28 22  01 55 34.622   +21 14 34.57  .19410 1.1536 146.7 21.7 1.62  82
2021 11 28 23  01 55 22.894   +21 16 38.33  .19416 1.1535 146.6 21.7 1.66  82
2021 11 29 00  01 55 11.176   +21 18 41.98  .19422 1.1535 146.5 21.7 1.70  82
2021 11 29 01  01 54 59.467   +21 20 45.51  .19428 1.1534 146.4 21.7 1.74  82
2021 11 29 02  01 54 47.769   +21 22 48.93  .19434 1.1533 146.4 21.7 1.79  83
2021 11 29 03  01 54 36.081   +21 24 52.23  .19440 1.1532 146.3 21.7 1.83  83
2021 11 29 04  01 54 24.403   +21 26 55.41  .19447 1.1531 146.2 21.7 1.87  83
2021 11 29 05  01 54 12.735   +21 28 58.48  .19453 1.1530 146.1 21.7 1.91  83
2021 11 29 06  01 54 01.077   +21 31 01.43  .19459 1.1530 146.0 21.7 1.96  83
2021 11 29 07  01 53 49.430   +21 33 04.26  .19465 1.1529 146.0 21.7 2.00  84
2021 11 29 08  01 53 37.793   +21 35 06.97  .19472 1.1528 145.9 21.8 2.05  84
2021 11 29 09  01 53 26.166   +21 37 09.57  .19478 1.1527 145.8 21.8 2.09  84
2021 11 29 10  01 53 14.549   +21 39 12.05  .19485 1.1526 145.7 21.8 2.14  84
2021 11 29 11  01 53 02.943   +21 41 14.41  .19491 1.1525 145.6 21.8 2.18  84
2021 11 29 12  01 52 51.348   +21 43 16.65  .19497 1.1525 145.5 21.8 2.23  85
2021 11 29 13  01 52 39.763   +21 45 18.78  .19504 1.1524 145.5 21.8 2.28  85